GSAT0201 (GALILEO 5)

Last updated on Sat Sep 05 2026 00:02:48 GMT+0000 (Coordinated Universal Time)

1 40128U 14050A 26247.10875616 .00000027 00000+0 00000+0 0 9997 2 40128 48.7926 270.1920 1685233 182.4460 176.6401 1.85519507 79784
UTC large
Height (km)
Speed (km/s)
/
Latitude / Longitude
Inclination (degrees)
Orbital Period (minutes)
Azimuth
Elevation
Range (km)
Doppler Factor

Next 0 passes for location: London (51.5072 / 0.1276)

No passes found over London.
GSAT0201 (GALILEO 5)